Theta_e
271 272 268 267 265 265 263 263 261 262 264 263 265 267 268 269 270 270 270 271 272 272 273 274 275 275 277 278 279 281 284 285 289 294 308 307 305 305 305 304 303 303 302 301
268 271 271 268 266 266 264 262 263 264 264 266 268 269 269 269 268 268 269 270 271 272 273 273 274 275 276 277 278 281 282 284 286 289 294 306 304 303 303 302 302 302 301 300
266 269 267 266 262 263 263 263 262 260 263 266 266 267 268 268 268 268 269 270 271 272 272 273 274 276 275 277 279 280 280 281 283 285 288 298 304 302 301 300 300 300 300 300
266 267 261 263 268 266 264 263 264 264 265 266 266 268 271 269 268 268 269 270 271 272 273 274 276 276 277 278 278 279 279 279 281 282 284 288 299 301 300 300 299 298 298 298
264 265 265 264 265 263 262 262 265 264 266 266 267 270 269 270 270 270 270 271 272 274 274 275 276 276 277 278 278 278 277 278 279 281 282 285 289 298 301 300 299 298 298 297
267 262 260 264 265 266 266 260 265 265 265 265 266 263 266 269 270 270 271 272 272 273 274 275 276 277 276 277 277 276 277 278 279 280 281 283 285 288 296 300 298 297 295 297
267 264 265 264 265 266 260 260 265 265 265 265 264 265 268 270 270 271 271 272 273 273 273 274 276 276 275 276 275 277 278 279 279 280 280 283 284 287 290 293 293 293 291 295
266 263 260 266 266 262 262 266 266 266 266 265 267 268 268 269 269 270 270 271 272 272 273 275 276 275 274 274 276 277 278 279 279 280 281 282 284 285 288 291 290 290 291 291
264 263 264 266 264 266 266 265 266 266 267 267 266 267 268 268 268 269 270 271 272 272 273 274 275 275 273 275 276 276 277 278 279 280 280 282 283 284 286 288 289 288 289 290
262 263 264 265 267 267 267 266 267 268 267 267 266 267 267 267 268 269 269 270 271 271 271 272 274 274 274 275 276 276 275 277 279 279 281 281 283 284 285 286 287 287 288 288
263 263 266 266 266 266 266 267 267 268 268 267 267 266 267 267 268 268 269 271 271 270 270 271 272 273 275 275 275 274 275 277 278 280 280 281 282 283 285 285 287 286 287 288
260 262 261 263 265 266 264 265 266 266 266 267 267 266 267 267 268 268 269 270 269 269 269 270 271 272 273 275 275 274 274 276 276 279 280 281 282 283 287 288 289 290 290 289
261 262 262 263 265 265 263 264 265 266 266 265 267 267 267 267 268 270 269 269 268 268 268 269 269 270 272 274 274 274 274 275 277 278 279 279 281 281 282 286 288 288 290 290
262 261 261 263 261 262 263 264 265 266 266 266 267 267 266 266 267 267 267 267 267 267 267 268 268 269 272 273 273 274 275 278 277 278 279 280 281 281 282 283 284 285 289 289
259 260 260 261 261 261 262 262 262 262 264 264 265 265 265 265 265 265 266 267 266 266 268 267 267 268 272 272 273 274 275 276 277 279 280 281 281 282 282 282 283 285 285 288
258 258 258 258 258 259 259 259 259 259 261 263 263 263 264 265 265 266 266 266 264 265 265 266 268 270 272 272 273 274 275 278 279 278 279 280 281 281 281 282 282 284 284 285
253 255 256 256 256 256 256 257 259 260 261 262 263 264 264 264 264 265 264 265 265 265 266 269 269 270 272 273 273 274 276 276 278 277 278 279 279 280 281 281 282 283 285 286
255 255 256 256 256 256 257 258 259 260 261 262 264 264 263 262 262 263 263 264 264 266 269 270 269 273 273 273 273 276 275 275 276 276 277 278 279 280 280 281 282 282 284 285
253 253 254 255 255 254 256 257 258 260 261 263 263 263 263 263 263 263 264 264 265 266 267 268 273 273 273 274 276 275 274 274 275 276 277 278 278 279 280 281 281 282 283 282
253 254 254 254 254 254 255 256 259 259 261 262 263 263 263 263 263 263 264 265 267 267 269 272 272 271 273 273 277 274 273 274 274 275 275 276 276 278 278 279 279 279 279 279
252 252 251 252 252 254 257 258 258 258 261 262 262 262 262 263 264 264 265 264 267 268 272 272 271 272 272 275 273 272 272 273 274 274 274 274 275 275 276 276 276 276 276 276
252 251 251 251 252 253 257 258 259 260 262 262 263 263 263 263 264 265 267 265 267 272 271 270 270 272 275 274 271 271 272 272 273 274 274 274 274 274 274 274 274 274 275 275
253 252 253 251 251 253 255 258 260 261 260 261 261 262 262 262 264 263 263 267 268 270 269 268 272 275 274 270 270 271 271 272 272 273 273 273 274 274 273 273 273 274 274 274
254 253 253 254 253 254 255 259 260 261 260 261 262 263 262 262 263 266 266 268 270 270 269 268 271 274 272 269 269 269 270 271 272 272 273 273 273 273 273 273 273 273 274 274
253 252 252 252 255 257 257 259 260 261 260 261 262 263 264 264 263 264 266 266 268 268 267 268 271 272 268 268 267 268 269 270 271 272 272 272 272 271 272 272 271 272 272 272
255 255 256 255 256 257 258 260 259 260 260 259 261 262 263 264 264 265 265 266 266 267 266 266 267 268 267 267 267 267 268 268 269 270 270 270 270 270 270 270 270 271 271 271
256 258 257 257 258 259 259 259 259 258 259 259 259 262 262 263 263 265 266 264 264 265 265 265 266 267 267 267 266 266 266 267 270 268 269 269 269 269 269 270 270 270 270 270
Wind_Speed
15 10 3 3 9 9 10 9 6 12 7 14 16 12 15 16 16 17 18 17 16 16 15 14 14 14 14 15 13 12 13 12 11 10 7 11 12 13 13 14 15 17 16 14
5 4 9 8 8 5 6 8 5 10 3 15 15 13 13 17 18 18 18 18 17 16 16 15 15 14 14 14 14 14 13 11 13 11 10 10 12 13 13 13 12 14 16 17
6 3 6 10 4 3 3 4 5 5 9 15 16 15 12 15 17 17 17 18 16 15 14 14 14 13 13 13 12 11 10 12 13 12 11 6 10 12 13 13 13 14 14 16
7 4 11 4 3 2 1 2 4 6 10 12 15 16 5 13 15 16 17 18 17 14 14 14 13 12 12 10 10 11 12 12 13 12 11 10 3 11 12 12 14 14 13 14
5 10 2 7 5 1 1 4 6 8 11 13 17 13 6 16 16 15 15 14 12 13 13 10 12 12 11 10 10 11 11 11 11 12 12 10 9 1 8 10 10 11 12 13
9 13 13 6 4 2 4 5 8 9 11 14 14 8 6 19 18 17 17 13 13 14 13 12 12 12 11 11 10 11 11 11 10 10 11 10 7 7 2 8 10 8 10 11
12 14 2 3 1 4 5 5 6 7 10 11 10 8 16 15 15 16 16 15 14 13 11 13 12 13 12 11 11 10 10 9 9 9 10 10 9 5 4 4 7 7 7 7
2 5 12 5 4 4 5 4 5 7 9 10 12 13 13 14 15 15 16 17 16 12 12 12 12 12 12 12 12 12 11 10 9 9 8 8 8 6 4 4 7 7 8 6
3 3 5 5 8 4 2 6 7 9 10 11 13 13 14 14 15 13 15 13 14 13 13 12 12 11 12 13 12 12 11 10 9 9 8 8 8 6 3 2 5 5 5 6
2 6 3 6 4 5 5 6 8 9 10 11 12 13 13 12 13 13 13 13 12 13 14 14 13 12 10 12 12 12 11 10 7 7 9 8 7 4 3 1 3 5 5 5
2 4 6 8 5 5 7 8 9 10 10 10 11 13 11 10 12 11 12 11 11 12 11 14 14 13 12 12 12 11 10 8 7 5 6 7 6 4 3 2 2 3 3 5
3 5 5 3 7 7 8 9 10 11 10 10 9 11 12 11 10 10 10 10 10 11 11 12 12 13 12 12 12 10 9 7 7 6 4 4 5 4 3 3 5 6 4 4
2 5 7 9 6 8 9 10 11 11 10 10 9 9 11 11 10 12 10 11 11 12 11 11 12 12 11 11 11 9 9 8 6 7 5 5 5 5 4 2 4 3 5 6
4 7 6 3 5 11 10 10 12 11 8 8 8 9 10 10 11 10 9 10 10 11 11 11 11 12 13 13 13 12 10 16 7 7 6 5 5 4 3 3 2 2 2 4
3 4 6 7 8 7 8 9 9 9 10 9 7 7 7 10 9 8 8 9 10 10 9 10 11 12 12 12 12 11 9 6 6 6 6 5 4 4 3 3 2 1 1 2
6 5 3 5 7 8 9 7 7 7 8 9 9 7 8 8 9 9 7 7 8 9 10 10 11 12 13 11 11 9 8 15 11 6 6 4 4 3 3 2 1 0 1 1
3 2 6 7 8 8 7 7 8 8 9 8 9 9 8 8 8 7 9 8 8 8 9 8 11 12 11 9 10 9 6 7 12 6 6 5 4 5 3 2 2 1 1 1
4 5 5 8 9 9 10 9 8 9 8 9 8 8 8 7 8 9 8 10 10 8 7 8 11 12 9 10 10 8 6 6 6 5 5 5 4 4 4 3 2 1 1 0
3 5 5 6 6 8 8 9 9 9 9 8 8 7 7 7 7 8 9 8 8 10 10 13 18 15 11 12 13 5 6 6 6 5 5 7 5 4 3 2 2 1 2 4
4 3 5 6 6 7 9 8 9 9 9 7 7 7 8 8 8 8 9 8 5 7 13 12 13 12 12 12 16 6 7 7 6 5 5 4 4 4 2 3 3 4 4 5
5 4 6 6 8 9 9 7 7 7 8 7 6 6 7 9 8 7 8 8 9 13 14 16 11 11 10 11 9 6 6 6 5 5 4 4 3 2 2 3 4 4 4 5
3 3 5 6 7 9 8 8 8 7 5 7 6 6 7 8 8 8 6 6 9 19 10 8 9 17 12 15 7 7 6 6 5 4 3 3 3 2 3 3 3 4 4 5
4 5 5 5 6 8 9 9 5 6 5 6 6 7 6 6 7 7 8 9 8 14 8 7 17 21 17 6 6 6 7 6 5 4 3 3 3 3 2 3 3 4 5 5
4 4 5 6 5 6 7 6 6 4 4 6 4 4 5 6 6 4 8 13 18 16 10 11 15 19 15 6 5 6 6 4 4 4 4 5 3 3 4 4 5 5 6 8
4 4 5 5 6 4 4 5 6 3 6 6 6 5 5 5 5 7 6 7 15 13 8 15 19 18 7 7 6 6 5 6 2 4 3 3 4 4 5 5 6 7 7 7
5 5 5 5 5 5 5 4 4 4 5 6 6 6 5 5 5 7 6 9 7 11 7 7 8 8 7 7 7 7 7 5 6 5 5 5 6 6 6 6 7 7 7 7
5 7 3 4 3 4 5 6 3 5 5 6 7 5 6 6 7 7 8 7 7 6 6 6 6 9 7 8 7 7 7 7 9 6 6 6 6 6 6 6 7 7 7 7
Wind_Direction
301 296 197 45 17 14 21 355 10 339 342 360 349 4 8 3 358 356 357 356 353 351 350 347 345 345 351 354 338 338 5 346 342 345 180 163 165 169 170 172 174 172 170 176
272 243 243 233 47 35 18 355 340 327 5 354 335 330 349 4 358 357 353 351 347 347 344 341 346 345 349 344 345 347 8 323 356 350 346 168 162 162 165 168 170 169 172 174
298 330 297 243 67 48 136 32 315 355 330 334 335 334 332 2 356 350 349 346 342 343 337 337 339 341 341 336 346 347 356 359 349 349 353 328 163 164 163 163 162 170 174 178
288 265 295 116 104 134 161 142 360 322 335 339 333 318 347 19 352 344 342 342 339 337 337 335 332 341 332 336 341 360 4 359 349 347 350 339 246 172 160 165 169 169 174 174
270 305 23 180 136 149 233 155 14 336 340 345 340 315 96 6 347 339 338 335 334 331 329 330 339 337 330 341 356 7 356 352 342 346 345 339 355 311 168 157 167 170 171 167
302 286 287 67 89 93 202 204 20 347 344 347 340 352 348 343 336 335 336 337 331 336 329 337 339 338 342 352 2 358 349 340 341 344 341 335 336 337 328 168 169 161 168 171
273 280 285 45 85 168 231 53 354 336 336 339 337 327 316 328 333 334 333 336 337 333 337 339 340 343 349 352 358 339 334 335 342 347 340 332 334 303 313 125 133 136 144 154
242 272 265 14 167 255 24 323 344 344 337 328 323 320 326 329 334 335 336 337 339 337 337 337 344 342 346 353 340 337 337 343 345 346 339 322 315 323 294 137 131 139 142 137
318 5 110 69 88 77 346 322 348 333 330 325 318 324 328 328 331 334 336 338 336 339 337 344 348 344 342 339 339 335 339 344 345 340 330 336 319 321 330 109 135 136 150 155
186 158 176 136 168 39 17 341 328 322 326 319 321 322 325 327 329 331 336 334 342 339 341 342 344 336 336 334 337 335 341 339 337 339 341 337 324 316 325 55 98 136 151 154
175 143 151 158 70 18 340 335 333 333 321 329 322 319 323 323 324 328 327 334 339 341 336 334 336 335 337 337 331 337 330 332 338 332 333 333 325 324 327 335 95 125 135 151
43 72 326 320 1 7 339 335 334 325 328 328 325 320 321 320 325 323 318 335 336 335 330 328 329 327 326 332 335 328 323 331 332 328 338 329 327 319 342 16 57 92 134 144
338 343 301 287 298 19 334 326 323 319 318 321 324 322 324 318 319 326 334 336 334 326 320 319 323 319 320 325 331 332 323 322 329 334 335 333 323 326 341 13 58 78 128 158
15 329 262 69 336 326 321 321 315 309 311 327 330 332 323 319 318 327 330 329 320 315 310 318 321 320 325 332 331 329 329 334 333 321 317 320 314 324 314 331 42 95 137 145
2 335 297 309 304 317 322 318 323 322 328 326 331 321 322 321 317 313 312 317 318 303 314 321 321 317 326 326 323 322 320 313 317 306 307 293 288 299 306 332 6 54 97 145
320 305 298 319 320 319 322 325 320 314 318 318 317 322 321 314 309 305 312 318 321 316 309 313 311 316 317 311 325 316 313 326 328 317 315 303 298 299 297 297 314 359 144 116
320 320 335 318 322 316 303 296 297 302 308 311 318 317 319 316 308 324 316 314 305 294 295 297 318 309 301 322 320 311 312 322 324 316 301 307 311 299 293 299 297 1 351 121
268 286 290 292 300 305 305 305 302 305 307 311 309 317 319 322 317 314 314 315 313 305 300 329 313 305 332 320 310 310 327 320 309 304 308 302 294 283 290 282 270 229 210 145
231 278 286 286 289 289 287 293 297 302 301 305 310 320 313 308 311 311 316 313 308 327 323 319 315 336 318 322 323 332 320 316 312 316 322 331 338 319 282 252 250 238 126 99
274 278 287 290 293 279 288 284 291 298 297 303 310 313 324 323 322 319 311 308 311 324 305 313 334 320 328 309 339 338 324 325 326 330 333 355 335 331 349 36 76 73 75 82
274 285 287 290 298 295 287 287 291 292 300 304 307 323 319 311 313 312 324 329 343 314 329 340 327 324 308 335 356 326 323 322 325 335 337 333 334 360 26 51 59 65 73 78
259 267 281 286 293 294 297 307 293 289 306 323 320 323 329 324 328 320 326 338 315 326 336 338 323 313 343 357 335 329 328 329 328 333 342 344 355 31 54 68 78 82 86 94
264 265 280 280 281 288 299 287 305 297 338 331 317 331 327 314 313 322 329 330 329 314 357 339 319 343 358 357 337 332 330 334 337 342 348 0 19 41 66 88 85 88 91 96
257 262 273 288 280 276 287 317 316 331 336 302 326 314 317 325 323 331 319 330 326 336 346 328 335 349 6 347 343 337 333 342 347 358 9 46 49 62 65 69 82 84 93 95
261 262 252 261 274 283 305 294 294 320 326 341 327 332 333 332 314 309 320 318 334 337 343 336 347 357 353 349 354 348 350 348 32 21 32 53 64 67 67 70 78 81 84 88
276 283 293 278 270 292 290 301 303 337 325 333 326 322 336 331 323 319 320 335 336 339 337 338 335 352 353 354 6 1 358 14 17 32 45 45 52 59 65 68 74 79 81 85
256 277 277 249 250 291 294 267 350 321 325 318 306 306 332 326 322 333 333 343 334 336 341 343 346 350 6 8 6 10 10 11 43 48 43 49 53 59 64 70 74 77 78 78